Regional Weather Roundup
Issued by NWS Northern Indiana

Home | Current Version | Previous Version | Text Only | Print | Product List | Glossary Off
Versions: 1 2 3 4 5 6 7 8 9 10 11 12 13 14 15 16 17 18 19 20 21 22 23 24 25 26 27 28 29 30 31 32 33 34 35 36 37 38 39 40 41 42 43 44 45 46 47 48 49 50

000
ASUS43 KIWX 290210
RWRIWX

KIWX WEATHER ROUNDUP
NATIONAL WEATHER SERVICE NORTHERN INDIANA
1000 PM EDT THU MAY 28 2015

NOTE: "FAIR" INDICATES FEW OR NO CLOUDS BELOW 12,000 FEET WITH NO
SIGNIFICANT WEATHER AND/OR OBSTRUCTIONS TO VISIBILITY.

* THESE STATIONS ARE NOT UNDER NWS QUALITY CONTROL. THEY ALSO MAY NOT
  REPORT WEATHER SUCH AS PRECIPITATION OR FOG.

INZ001>027-290300-
NORTHERN INDIANA

CITY           SKY/WX    TMP DP  RH WIND       PRES   REMARKS
GARY*          PTCLDY    64  59  82 CALM      30.09F
VALPARAISO     PTCLDY    72  56  57 E3        30.10F
MICHIGAN CITY* PTCLDY    68  55  64 E3        30.11S
LAPORTE*       CLEAR     72  58  62 E6        30.12S
KNOX*          PTCLDY    70  55  60 E6        30.10S
SOUTH BEND     PTCLDY    74  56  53 E7        30.13S
GOSHEN         PTCLDY    67  58  72 E7        30.14S
MONTICELLO*    CLEAR     71  61  70 CALM      30.10R
LOGANSPORT*    CLEAR     70  52  52 E3        30.12R
ROCHESTER*     PTCLDY    70  61  73 E6        30.13R
WARSAW*        PTCLDY    70  59  68 E8        30.14S
ANGOLA*        CLEAR     70  55  60 E7        30.17S
FORT WAYNE     MOCLDY    71  61  70 E8        30.15S
HUNTINGTON*    PTCLDY    72  59  64 E3        30.14R
PERU/GRISSOM   CLEAR     73  60  63 SE5       30.11S
MARION*        CLEAR     71  58  62 SE5       30.14S

$$
INZ028>050-290300-
CENTRAL INDIANA

CITY           SKY/WX    TMP DP  RH WIND       PRES   REMARKS
LAFAYETTE      MOCLDY    72  58  61 CALM      30.09S
KOKOMO*        CLEAR     73  57  56 SE6       30.12R
MUNCIE*        CLEAR     75  59  57 SE5       30.14S
INDIANAPOLIS   PTCLDY    74  61  63 SE7       30.11S

$$
MIZ043>046-050>051-056>058-064>065-071>073-077>080-290300-
SOUTHWEST LOWER MICHIGAN

CITY           SKY/WX    TMP DP  RH WIND       PRES   REMARKS
BATTLE CREEK   CLEAR     73  55  53 SE6       30.17F
BENTON HARBOR  PTCLDY    66  57  72 E3        30.12F
COLDWATER*     CLEAR     68  54  60 E6        30.17S
HILLSDALE*     CLEAR     68  54  60 E7        30.20R
HOLLAND        CLEAR     68  56  65 E5        30.14S
GRAND RAPIDS   MOCLDY    70  56  61 SE6       30.15S
KALAMAZOO      CLEAR     70  55  59 CALM      30.16S
STURGIS*       CLEAR     70  55  60 E6        30.15S
THREE RIVERS*  FAIR      71  55  56 E6        30.15S

$$
OHZ001>008-015>018-024>025-290300-
NORTHWEST OHIO

CITY           SKY/WX    TMP DP  RH WIND       PRES   REMARKS
WAUSEON*       FAIR      66  57  72 E7        30.19S
DEFIANCE       PTCLDY    71  56  58 E8        30.17S
FINDLAY        PTCLDY    73  57  57 E13       30.17R
TOLEDO EXPRESS CLEAR     65  56  72 E8        30.19S
TOLEDO METCALF CLEAR     65  56  72 E6        30.21R
LIMA           MOCLDY    72  61  68 E6        30.17R

$$
AND FOR LAKE MICHIGAN COASTAL AND OPEN LAKE BUOY OBSERVATIONS

STATION/POSITION TEMP    WIND        PRES    VSBY  WAVE
                 AIR SEA DIR/SP/G                  HT/PER
                 (F)     (DEG/KT/KT) (MB)    (MI)  (FT/S)
CALUMET HARBOR    62      70/  5/  9   N/A
MICHIGAN CITY     67      50/  6/  7   N/A
BURNS HARBOR      62      80/  8/ 10 1019.6R
SAINT JOSEPH      71      CALM  /  1 1020.0F
SOUTH LAKE BUOY   46 38   90/  8/ 10 1020.0F         0
4 MI NW BRIDGMAN  70 60  130/  6/  6   N/A           1
MICHIGAN CITY     59 55  110/  4/  6   N/A           1
MICHIGAN CITY CG     63              1021.9   3 1/2  1

$$
&&


USA.gov is the U.S. government's official web portal to all federal, state and local government web resources and services.